Harvard, Illinois, United States (60033)
Lat: 42.42N, Lon: 88.61W
Wx Zone: ILZ005
Local Info
Past Weather Observations for Today

NOTE: This archive is for the closest National Weather Service station to Harvard. Information may differ from the station used for current weather conditions.

Time Weather Temperature Dewpoint Humidity Pressure Winds Precip Visibility
07:35
Overcast
43°F / 6°C 34°F / 1°C 71% 29.98 in
(1015 mb)
ESE 11.5 mph
(ESE 19 kph)
- 10SM
07:15
Overcast
41°F / 5°C 34°F / 1°C 76% 29.98 in
(1015 mb)
ESE 13.8 mph
(ESE 22 kph)
- 10SM
06:55
Overcast
41°F / 5°C 34°F / 1°C 76% 30.01 in
(1016 mb)
ESE 13.8 mph
(ESE 22 kph)
- 10SM
06:35
Overcast
39°F / 4°C 34°F / 1°C 81% 30.01 in
(1016 mb)
E 13.8 mph
(E 22 kph)
- 10SM
06:15
Mostly Cloudy
39°F / 4°C 34°F / 1°C 81% 30.01 in
(1016 mb)
ESE 8.1 mph
(ESE 13 kph)
- 10SM
05:55
Partly Cloudy
39°F / 4°C 32°F / 0°C 75% 30.01 in
(1016 mb)
E 10.4 mph
(E 17 kph)
- 10SM
05:35
Mostly Cloudy
37°F / 3°C 32°F / 0°C 81% 30.01 in
(1016 mb)
E 4.6 mph
(E 7 kph)
- 10SM
05:15
Partly Cloudy
37°F / 3°C 32°F / 0°C 81% 30.01 in
(1016 mb)
E 6.9 mph
(E 11 kph)
- 10SM
04:55
Partly Cloudy
37°F / 3°C 32°F / 0°C 81% 30.04 in
(1017 mb)
E 9.2 mph
(E 15 kph)
- 10SM
04:35
Partly Cloudy
36°F / 2°C 32°F / 0°C 87% 30.04 in
(1017 mb)
E 8.1 mph
(E 13 kph)
- 10SM
04:15
Partly Cloudy
Unknown Precip
36°F / 2°C 32°F / 0°C 87% 30.06 in
(1018 mb)
E 5.8 mph
(E 9 kph)
- 10SM
03:55
Overcast
Unknown Precip
34°F / 1°C 32°F / 0°C 93% 30.04 in
(1017 mb)
ENE 9.2 mph
(ENE 15 kph)
- 10SM
03:35
Overcast
Unknown Precip
34°F / 1°C 32°F / 0°C 93% 30.06 in
(1018 mb)
ENE 9.2 mph
(ENE 15 kph)
- 10SM
03:15
Mostly Cloudy
Unknown Precip
34°F / 1°C 30°F / -1°C 87% 30.06 in
(1018 mb)
ENE 4.6 mph
(ENE 7 kph)
- 10SM
02:55
Mostly Cloudy
34°F / 1°C 30°F / -1°C 87% 30.06 in
(1018 mb)
NE 5.8 mph
(NE 9 kph)
- 10SM
02:35
Overcast
34°F / 1°C 30°F / -1°C 87% 30.09 in
(1019 mb)
ENE 5.8 mph
(ENE 9 kph)
- 10SM
02:15
Mostly Cloudy
34°F / 1°C 30°F / -1°C 87% 30.09 in
(1019 mb)
Calm - 10SM
01:55
Overcast
Unknown Precip
34°F / 1°C 30°F / -1°C 87% 30.09 in
(1019 mb)
Calm - 10SM
01:35
Overcast
Unknown Precip
34°F / 1°C 30°F / -1°C 87% 30.09 in
(1019 mb)
NE 3.5 mph
(NE 6 kph)
- 10SM
01:15
Overcast
36°F / 2°C 30°F / -1°C 81% 30.12 in
(1020 mb)
NNW 4.6 mph
(NNW 7 kph)
- 10SM
00:55
Overcast
Unknown Precip
34°F / 1°C 28°F / -2°C 81% 30.09 in
(1019 mb)
ENE 3.5 mph
(ENE 6 kph)
- 10SM
00:35
Overcast
Unknown Precip
34°F / 1°C 30°F / -1°C 87% 30.09 in
(1019 mb)
E 3.5 mph
(E 6 kph)
- 10SM
00:15
Overcast
34°F / 1°C 28°F / -2°C 81% 30.09 in
(1019 mb)
Calm - 10SM
Time Weather Temperature Dewpoint Humidity Pressure Winds Precip Visibility


Weather for websites

WeatherForYou.com, LLC is not responsible for any damages or problems caused by this service. Current weather conditions are obtained from the closest station including government and personal stations which may have varying degrees of accuracy. Weather forecasts are derived from the NOAA NDFD. Like all things, this site belongs to Jesus Christ... He just trusts me to maintain it. If you have any questions or comments email webmaster@weatherforyou.com

Copyright © 2014, WeatherForYou.com LLC. All rights reserved.